BAW21ML KDEN-EGLL

Flight info

Callsign BAW21ML
Flight time N/A
Altitude 35000
Route CHUWY1 CHUWY DCT KD78A DCT KP06G/N0488F370 DCT DLH DCT KP18K DCT YQT DCT 52N080W 56N070W DCT LAKES/M084F370 DCT SAVRY DCT 61N050W/M084F390 6130N04000W 61N030W 59N020W DCT AGORI/N0478F390 DCT OSBOX DCT MIMKU DCT KELLY L10 WAL UY53 NUGRA
Aircraft A35K/H-SBDE1E2E3GHIJ1J3J4J5J6M1M2P2RWXYZ/LB1D1

Departure

Time N/A
Airport Denver International Airport (KDEN)

Arrival

Time 2026-05-03 21:47
Airport London Heathrow Airport (EGLL)
Time Latitude Longitude Altitude Speed Heading
2026-05-03 20:15 57.59179 -14.86014 39097 ft 504 kts 118°
2026-05-03 20:15 57.55709 -14.74690 39097 ft 502 kts 118°
2026-05-03 20:16 57.52234 -14.63407 39100 ft 501 kts 118°
2026-05-03 20:16 57.48757 -14.52167 39114 ft 502 kts 118°
2026-05-03 20:17 57.45259 -14.40920 39102 ft 504 kts 118°
2026-05-03 20:17 57.41739 -14.29639 39105 ft 505 kts 118°
2026-05-03 20:18 57.38209 -14.18373 39104 ft 505 kts 118°
2026-05-03 20:18 57.34688 -14.07240 39110 ft 503 kts 118°
2026-05-03 20:19 57.31141 -13.96062 39114 ft 504 kts 118°
2026-05-03 20:19 57.27601 -13.84923 39111 ft 502 kts 119°
2026-05-03 20:20 57.24045 -13.73803 39123 ft 503 kts 119°
2026-05-03 20:20 57.20466 -13.62683 39107 ft 504 kts 119°
2026-05-03 20:21 57.16882 -13.51563 39112 ft 504 kts 119°
2026-05-03 20:21 57.13285 -13.40491 39116 ft 503 kts 119°
2026-05-03 20:22 57.09677 -13.29450 39114 ft 503 kts 119°
2026-05-03 20:22 57.06685 -13.20302 39118 ft 502 kts 119°
2026-05-03 20:23 57.03076 -13.09303 39122 ft 503 kts 119°
2026-05-03 20:23 56.99454 -12.98308 39119 ft 504 kts 120°
2026-05-03 20:24 56.95906 -12.87161 39119 ft 508 kts 118°
2026-05-03 20:24 56.92409 -12.75919 39121 ft 507 kts 118°
2026-05-03 20:25 56.88879 -12.64715 39213 ft 508 kts 118°
2026-05-03 20:25 56.87108 -12.59128 39328 ft 508 kts 118°
2026-05-03 20:25 56.85353 -12.53614 39441 ft 508 kts 118°
2026-05-03 20:25 56.83574 -12.48040 39561 ft 508 kts 118°
2026-05-03 20:26 56.81790 -12.42462 39663 ft 508 kts 118°
2026-05-03 20:26 56.80011 -12.36899 39781 ft 508 kts 118°
2026-05-03 20:26 56.78226 -12.31340 39899 ft 508 kts 119°
2026-05-03 20:27 56.74640 -12.20265 40123 ft 506 kts 119°
2026-05-03 20:27 56.72846 -12.14750 40238 ft 506 kts 119°
2026-05-03 20:27 56.71046 -12.09238 40355 ft 506 kts 119°
2026-05-03 20:27 56.69252 -12.03730 40478 ft 506 kts 119°
2026-05-03 20:28 56.67463 -11.98231 40589 ft 505 kts 119°
2026-05-03 20:28 56.65668 -11.92731 40709 ft 505 kts 119°
2026-05-03 20:28 56.63874 -11.87240 40829 ft 506 kts 119°
2026-05-03 20:28 56.62075 -11.81754 40956 ft 506 kts 120°
2026-05-03 20:29 56.60271 -11.76275 41070 ft 506 kts 120°
2026-05-03 20:29 56.56644 -11.65314 41132 ft 506 kts 120°
2026-05-03 20:30 56.53009 -11.54364 41116 ft 505 kts 120°
2026-05-03 20:30 56.49387 -11.43482 41120 ft 504 kts 120°
2026-05-03 20:31 56.45775 -11.32680 41116 ft 505 kts 120°
2026-05-03 20:31 56.42121 -11.21808 41113 ft 505 kts 120°
2026-05-03 20:32 56.38461 -11.10985 41113 ft 505 kts 120°
2026-05-03 20:32 56.34800 -11.00204 41111 ft 504 kts 120°
2026-05-03 20:33 56.31122 -10.89445 41110 ft 504 kts 120°
2026-05-03 20:33 56.27444 -10.78688 41112 ft 505 kts 121°
2026-05-03 20:34 56.23750 -10.67923 41110 ft 506 kts 120°
2026-05-03 20:34 56.20046 -10.57196 41109 ft 505 kts 121°
2026-05-03 20:35 56.16359 -10.46587 41102 ft 503 kts 121°
2026-05-03 20:35 56.12634 -10.35935 41106 ft 506 kts 121°
2026-05-03 20:36 56.08904 -10.25253 41109 ft 506 kts 121°
2026-05-03 20:36 56.05170 -10.14624 41104 ft 504 kts 121°
2026-05-03 20:37 56.01417 -10.03991 41103 ft 504 kts 121°
2026-05-03 20:37 55.97701 -9.93368 41101 ft 505 kts 120°
2026-05-03 20:38 55.94148 -9.82580 41099 ft 503 kts 119°
2026-05-03 20:38 55.90604 -9.71812 41096 ft 503 kts 119°
2026-05-03 20:39 55.87035 -9.61080 41107 ft 504 kts 120°
2026-05-03 20:39 55.83456 -9.50427 41100 ft 504 kts 120°
2026-05-03 20:40 55.79853 -9.39758 41093 ft 504 kts 120°
2026-05-03 20:40 55.76224 -9.29085 41095 ft 504 kts 120°
2026-05-03 20:41 55.72598 -9.18443 41086 ft 503 kts 120°
2026-05-03 20:41 55.68964 -9.07838 41085 ft 503 kts 120°
2026-05-03 20:42 55.65312 -8.97214 41091 ft 506 kts 120°
2026-05-03 20:42 55.61646 -8.86614 41082 ft 504 kts 120°
2026-05-03 20:43 55.57959 -8.76031 41078 ft 505 kts 120°
2026-05-03 20:43 55.54281 -8.65466 41077 ft 505 kts 121°
2026-05-03 20:44 55.50597 -8.54934 41078 ft 504 kts 121°
2026-05-03 20:44 55.46921 -8.44475 41067 ft 505 kts 120°
2026-05-03 20:45 55.43209 -8.33954 41076 ft 505 kts 121°
2026-05-03 20:45 55.39493 -8.23471 41067 ft 504 kts 121°
2026-05-03 20:46 55.35764 -8.12998 41052 ft 507 kts 121°
2026-05-03 20:46 55.32019 -8.02537 41050 ft 505 kts 121°
2026-05-03 20:47 55.28278 -7.92116 41048 ft 505 kts 121°
2026-05-03 20:47 55.24513 -7.81695 41046 ft 506 kts 121°
2026-05-03 20:48 55.20755 -7.71315 41050 ft 502 kts 121°
2026-05-03 20:48 55.16999 -7.61009 41042 ft 503 kts 122°
2026-05-03 20:49 55.13227 -7.50717 41032 ft 503 kts 122°
2026-05-03 20:49 55.09454 -7.40413 41043 ft 502 kts 122°
2026-05-03 20:50 55.05683 -7.30159 41046 ft 502 kts 122°
2026-05-03 20:50 55.01893 -7.19911 41050 ft 502 kts 122°
2026-05-03 20:51 54.98110 -7.09728 41051 ft 500 kts 122°
2026-05-03 20:51 54.94318 -6.99563 41045 ft 500 kts 122°
2026-05-03 20:52 54.90543 -6.89487 41042 ft 501 kts 122°
2026-05-03 20:52 54.86734 -6.79359 41034 ft 500 kts 123°
2026-05-03 20:53 54.82922 -6.69264 41027 ft 500 kts 123°
2026-05-03 20:53 54.79093 -6.59166 41028 ft 501 kts 123°
2026-05-03 20:54 54.75254 -6.49084 41022 ft 500 kts 123°
2026-05-03 20:54 54.69493 -6.34030 41021 ft 501 kts 123°
2026-05-03 20:55 54.65633 -6.23995 41021 ft 501 kts 123°
2026-05-03 20:55 54.61771 -6.13992 41019 ft 500 kts 123°
2026-05-03 20:56 54.57901 -6.04012 41019 ft 501 kts 123°
2026-05-03 20:56 54.54024 -5.94052 41020 ft 500 kts 123°
2026-05-03 20:57 54.50145 -5.84129 41019 ft 499 kts 124°
2026-05-03 20:57 54.46257 -5.74223 41017 ft 500 kts 124°
2026-05-03 20:58 54.42358 -5.64326 41015 ft 500 kts 124°
2026-05-03 20:58 54.38481 -5.54525 41006 ft 499 kts 124°
2026-05-03 20:59 54.34572 -5.44681 41010 ft 499 kts 124°
2026-05-03 20:59 54.30655 -5.34856 41002 ft 499 kts 124°
2026-05-03 21:00 54.28032 -5.28298 41006 ft 499 kts 124°
2026-05-03 21:00 54.22802 -5.15275 41003 ft 499 kts 125°
2026-05-03 21:01 54.18853 -5.05485 40993 ft 500 kts 125°
2026-05-03 21:01 54.14898 -4.95720 40992 ft 499 kts 125°
2026-05-03 21:02 54.10949 -4.86007 40979 ft 498 kts 125°
2026-05-03 21:02 54.06996 -4.76322 40985 ft 498 kts 125°
2026-05-03 21:03 54.03038 -4.66661 40992 ft 497 kts 125°
2026-05-03 21:03 53.99098 -4.57083 40991 ft 497 kts 125°
2026-05-03 21:04 53.95126 -4.47464 40990 ft 498 kts 126°
2026-05-03 21:04 53.91140 -4.37846 40982 ft 498 kts 126°
2026-05-03 21:05 53.87177 -4.28239 40978 ft 498 kts 125°
2026-05-03 21:05 53.83236 -4.18582 40980 ft 499 kts 125°
2026-05-03 21:06 53.79289 -4.08931 40977 ft 498 kts 125°
2026-05-03 21:06 53.75325 -3.99323 40970 ft 497 kts 126°
2026-05-03 21:07 53.71355 -3.89748 40971 ft 498 kts 126°
2026-05-03 21:07 53.67374 -3.80181 40962 ft 498 kts 126°
2026-05-03 21:08 53.63396 -3.70651 40970 ft 496 kts 126°
2026-05-03 21:08 53.60097 -3.62768 40966 ft 495 kts 126°
2026-05-03 21:09 53.56119 -3.53300 40965 ft 495 kts 126°
2026-05-03 21:09 53.52128 -3.43851 40968 ft 495 kts 126°
2026-05-03 21:10 53.48130 -3.34418 40967 ft 495 kts 126°
2026-05-03 21:10 53.44132 -3.25015 40962 ft 495 kts 126°
2026-05-03 21:11 53.40121 -3.15615 40967 ft 495 kts 126°
2026-05-03 21:11 53.36095 -3.06309 40956 ft 484 kts 128°
2026-05-03 21:12 53.34113 -3.01864 40957 ft 469 kts 128°
2026-05-03 21:12 53.32177 -2.97558 40961 ft 459 kts 128°
2026-05-03 21:12 53.28352 -2.89071 40965 ft 456 kts 128°
2026-05-03 21:13 53.24543 -2.80600 40881 ft 456 kts 128°
2026-05-03 21:13 53.22637 -2.76350 40557 ft 457 kts 128°
2026-05-03 21:13 53.20722 -2.72096 39836 ft 461 kts 128°
2026-05-03 21:14 53.18787 -2.67809 39154 ft 464 kts 128°
2026-05-03 21:14 53.16859 -2.63536 38254 ft 460 kts 128°
2026-05-03 21:14 53.14960 -2.59338 37367 ft 459 kts 128°
2026-05-03 21:14 53.13030 -2.55080 36973 ft 462 kts 128°
2026-05-03 21:15 53.11207 -2.50705 36843 ft 454 kts 126°
2026-05-03 21:15 53.09476 -2.46390 36159 ft 444 kts 126°
2026-05-03 21:15 53.07763 -2.42146 35292 ft 439 kts 126°
2026-05-03 21:15 53.06064 -2.37973 34726 ft 428 kts 126°
2026-05-03 21:16 53.04419 -2.33955 34321 ft 417 kts 127°
2026-05-03 21:16 53.02554 -2.30295 33921 ft 412 kts 141°
2026-05-03 21:16 53.00276 -2.27497 33501 ft 404 kts 149°
2026-05-03 21:16 52.97911 -2.25006 33110 ft 400 kts 150°
2026-05-03 21:17 52.95575 -2.22581 32731 ft 395 kts 150°
2026-05-03 21:17 52.94037 -2.20980 32470 ft 392 kts 150°
2026-05-03 21:17 52.90971 -2.17784 31980 ft 386 kts 150°
2026-05-03 21:17 52.88712 -2.15426 31611 ft 381 kts 150°
2026-05-03 21:18 52.86479 -2.13096 31234 ft 378 kts 150°
2026-05-03 21:18 52.84269 -2.10792 30861 ft 373 kts 150°
2026-05-03 21:18 52.82082 -2.08515 30505 ft 370 kts 150°
2026-05-03 21:18 52.79911 -2.06258 30147 ft 367 kts 150°
2026-05-03 21:19 52.77758 -2.04020 29760 ft 364 kts 150°
2026-05-03 21:19 52.75621 -2.01802 29372 ft 360 kts 151°
2026-05-03 21:19 52.73506 -1.99613 28999 ft 356 kts 151°
2026-05-03 21:19 52.71448 -1.97482 28650 ft 352 kts 151°
2026-05-03 21:20 52.69383 -1.95344 28287 ft 348 kts 151°
2026-05-03 21:20 52.67338 -1.93230 27949 ft 345 kts 151°
2026-05-03 21:20 52.65311 -1.91143 27587 ft 342 kts 151°
2026-05-03 21:20 52.63309 -1.89080 27231 ft 337 kts 151°
2026-05-03 21:21 52.61331 -1.87043 26885 ft 334 kts 151°
2026-05-03 21:21 52.59363 -1.85019 26564 ft 333 kts 151°
2026-05-03 21:21 52.57403 -1.83002 26226 ft 332 kts 151°
2026-05-03 21:21 52.55441 -1.80983 25888 ft 332 kts 151°
2026-05-03 21:22 52.53494 -1.78984 25546 ft 330 kts 151°
2026-05-03 21:22 52.51545 -1.76987 25208 ft 329 kts 150°
2026-05-03 21:22 52.49605 -1.75002 24869 ft 327 kts 151°
2026-05-03 21:22 52.47681 -1.73036 24529 ft 325 kts 151°
2026-05-03 21:23 52.45790 -1.71104 24212 ft 323 kts 150°
2026-05-03 21:23 52.43858 -1.69132 23863 ft 322 kts 150°
2026-05-03 21:23 52.41982 -1.67222 23528 ft 321 kts 150°
2026-05-03 21:23 52.40084 -1.65289 23171 ft 320 kts 150°
2026-05-03 21:24 52.38198 -1.63369 22821 ft 318 kts 151°
2026-05-03 21:24 52.36323 -1.61467 22494 ft 317 kts 150°
2026-05-03 21:24 52.34456 -1.59573 22157 ft 315 kts 150°
2026-05-03 21:24 52.32595 -1.57687 21827 ft 314 kts 150°
2026-05-03 21:25 52.30749 -1.55818 21491 ft 311 kts 150°
2026-05-03 21:25 52.28903 -1.53953 21177 ft 310 kts 150°
2026-05-03 21:25 52.27071 -1.52100 20852 ft 309 kts 151°
2026-05-03 21:25 52.25251 -1.50260 20533 ft 306 kts 151°
2026-05-03 21:26 52.23450 -1.48441 20223 ft 304 kts 151°
2026-05-03 21:26 52.21679 -1.46559 19883 ft 304 kts 146°
2026-05-03 21:26 52.20003 -1.44350 19683 ft 319 kts 142°
2026-05-03 21:26 52.18294 -1.41959 19571 ft 325 kts 142°
2026-05-03 21:27 52.16580 -1.39541 19045 ft 327 kts 142°
2026-05-03 21:27 52.14855 -1.37127 18609 ft 325 kts 142°
2026-05-03 21:27 52.13144 -1.34740 18292 ft 326 kts 142°
2026-05-03 21:27 52.11410 -1.32353 17926 ft 325 kts 142°
2026-05-03 21:28 52.09727 -1.29988 17584 ft 323 kts 141°
2026-05-03 21:28 52.08043 -1.27617 17230 ft 318 kts 142°
2026-05-03 21:28 52.06363 -1.25289 16936 ft 316 kts 142°
2026-05-03 21:28 52.04692 -1.22976 16620 ft 315 kts 142°
2026-05-03 21:29 52.03025 -1.20651 16283 ft 315 kts 142°
2026-05-03 21:29 52.01360 -1.18353 15965 ft 312 kts 142°
2026-05-03 21:29 51.99712 -1.16083 15648 ft 310 kts 142°
2026-05-03 21:29 51.98077 -1.13837 15324 ft 305 kts 142°
2026-05-03 21:30 51.96449 -1.11597 15025 ft 309 kts 141°
2026-05-03 21:30 51.94813 -1.09324 14669 ft 309 kts 142°
2026-05-03 21:30 51.93171 -1.07051 14253 ft 310 kts 142°
2026-05-03 21:30 51.91552 -1.04817 13851 ft 302 kts 143°
2026-05-03 21:31 51.89945 -1.02647 13448 ft 300 kts 142°
2026-05-03 21:31 51.88378 -1.00490 13169 ft 292 kts 141°
2026-05-03 21:31 51.86862 -0.98401 12947 ft 280 kts 142°
2026-05-03 21:31 51.85472 -0.96238 12729 ft 276 kts 131°
2026-05-03 21:32 51.84459 -0.93592 12433 ft 272 kts 120°
2026-05-03 21:32 51.83627 -0.90873 11797 ft 270 kts 118°
2026-05-03 21:32 51.82813 -0.88166 11279 ft 266 kts 118°
2026-05-03 21:32 51.82000 -0.85483 10881 ft 265 kts 118°
2026-05-03 21:33 51.81189 -0.82823 10529 ft 263 kts 118°
2026-05-03 21:33 51.80380 -0.80175 10183 ft 261 kts 118°
2026-05-03 21:33 51.79586 -0.77584 9849 ft 260 kts 118°
2026-05-03 21:33 51.78787 -0.74982 9486 ft 258 kts 118°
2026-05-03 21:34 51.77995 -0.72411 9160 ft 255 kts 118°
2026-05-03 21:34 51.77202 -0.69829 8827 ft 256 kts 119°
2026-05-03 21:34 51.76408 -0.67277 8513 ft 253 kts 118°
2026-05-03 21:34 51.75639 -0.64775 8162 ft 251 kts 118°
2026-05-03 21:35 51.74867 -0.62267 7822 ft 248 kts 118°
2026-05-03 21:35 51.74101 -0.59782 7510 ft 246 kts 118°
2026-05-03 21:35 51.73340 -0.57331 7203 ft 244 kts 118°
2026-05-03 21:35 51.72545 -0.54921 6866 ft 242 kts 123°
2026-05-03 21:36 51.71602 -0.52687 6826 ft 241 kts 127°
2026-05-03 21:36 51.70621 -0.50489 6823 ft 241 kts 127°
2026-05-03 21:36 51.69638 -0.48299 6827 ft 241 kts 127°
2026-05-03 21:36 51.68660 -0.46107 6827 ft 240 kts 127°
2026-05-03 21:37 51.67719 -0.43992 6813 ft 224 kts 127°
2026-05-03 21:37 51.66833 -0.42009 6800 ft 213 kts 127°
2026-05-03 21:37 51.65960 -0.40072 6802 ft 213 kts 127°
2026-05-03 21:37 51.65089 -0.38131 6801 ft 214 kts 127°
2026-05-03 21:38 51.64225 -0.36213 6806 ft 214 kts 127°
2026-05-03 21:38 51.63351 -0.34273 6805 ft 214 kts 127°
2026-05-03 21:38 51.62478 -0.32332 6804 ft 214 kts 127°
2026-05-03 21:38 51.61607 -0.30390 6792 ft 213 kts 127°
2026-05-03 21:39 51.60722 -0.28475 6690 ft 214 kts 129°
2026-05-03 21:39 51.59819 -0.26584 6512 ft 213 kts 129°
2026-05-03 21:39 51.58919 -0.24697 6345 ft 213 kts 129°
2026-05-03 21:39 51.58019 -0.22806 6127 ft 213 kts 128°
2026-05-03 21:40 51.57132 -0.20908 5962 ft 212 kts 128°
2026-05-03 21:40 51.56260 -0.18994 5737 ft 212 kts 128°
2026-05-03 21:40 51.55385 -0.17082 5436 ft 212 kts 127°
2026-05-03 21:40 51.54431 -0.15297 5109 ft 210 kts 139°
2026-05-03 21:41 51.53208 -0.14057 4790 ft 208 kts 159°
2026-05-03 21:41 51.51811 -0.13506 4474 ft 207 kts 171°
2026-05-03 21:41 51.50389 -0.13181 4196 ft 205 kts 172°
2026-05-03 21:41 51.48978 -0.12875 3880 ft 205 kts 172°
2026-05-03 21:42 51.47558 -0.12906 3513 ft 206 kts 193°
2026-05-03 21:42 51.46328 -0.14038 3142 ft 209 kts 228°
2026-05-03 21:42 51.45731 -0.16081 2801 ft 204 kts 264°
2026-05-03 21:42 51.45910 -0.18299 2532 ft 200 kts 287°
2026-05-03 21:43 51.46347 -0.20312 2455 ft 181 kts 291°
2026-05-03 21:43 51.46857 -0.22129 2480 ft 178 kts 296°
2026-05-03 21:43 51.47390 -0.23950 2485 ft 181 kts 292°
2026-05-03 21:43 51.47847 -0.25853 2419 ft 186 kts 281°
2026-05-03 21:44 51.47859 -0.27889 2133 ft 180 kts 265°
2026-05-03 21:44 51.47790 -0.29886 1780 ft 175 kts 269°
2026-05-03 21:44 51.47804 -0.31719 1555 ft 161 kts 270°
2026-05-03 21:44 51.47798 -0.33463 1349 ft 152 kts 270°
2026-05-03 21:45 51.47790 -0.35077 1136 ft 139 kts 271°
2026-05-03 21:45 51.47789 -0.36604 960 ft 138 kts 268°
2026-05-03 21:45 51.47783 -0.38139 775 ft 139 kts 267°
2026-05-03 21:45 51.47777 -0.39672 579 ft 135 kts 267°
2026-05-03 21:46 51.47787 -0.41171 386 ft 135 kts 271°
2026-05-03 21:46 51.47772 -0.42679 224 ft 136 kts 267°
2026-05-03 21:46 51.47767 -0.44200 100 ft 135 kts 267°
2026-05-03 21:46 51.47760 -0.45483 91 ft 89 kts 270°
2026-05-03 21:47 51.47759 -0.46169 95 ft 39 kts 270°
2026-05-03 21:47 51.47744 -0.46532 96 ft 27 kts 256°
2026-05-03 21:47 51.47681 -0.46784 98 ft 12 kts 242°
2026-05-03 21:47 51.47637 -0.46865 96 ft 11 kts 212°
2026-05-03 21:48 51.47591 -0.46940 92 ft 9 kts 250°
2026-05-03 21:48 51.47582 -0.47058 94 ft 12 kts 267°
2026-05-03 21:48 51.47581 -0.47205 96 ft 14 kts 270°
2026-05-03 21:48 51.47581 -0.47376 96 ft 16 kts 270°
2026-05-03 21:49 51.47581 -0.47568 92 ft 18 kts 270°
2026-05-03 21:49 51.47580 -0.47778 94 ft 19 kts 270°
2026-05-03 21:49 51.47579 -0.48002 96 ft 21 kts 270°
2026-05-03 21:49 51.47578 -0.48224 93 ft 13 kts 270°
2026-05-03 21:50 51.47574 -0.48326 93 ft 9 kts 248°
2026-05-03 21:50 51.47516 -0.48358 92 ft 10 kts 183°
2026-05-03 21:50 51.47435 -0.48359 92 ft 13 kts 179°
2026-05-03 21:50 51.47338 -0.48358 92 ft 15 kts 180°
2026-05-03 21:51 51.47226 -0.48358 94 ft 18 kts 180°
2026-05-03 21:51 51.47092 -0.48357 95 ft 17 kts 180°
2026-05-03 21:51 51.46996 -0.48356 96 ft 15 kts 179°
2026-05-03 21:51 51.46901 -0.48355 95 ft 7 kts 179°
2026-05-03 21:52 51.46858 -0.48352 92 ft 4 kts 165°
2026-05-03 21:52 51.46853 -0.48324 97 ft 4 kts 102°
2026-05-03 21:52 51.46849 -0.48272 92 ft 4 kts 93°
2026-05-03 21:52 51.46849 -0.48247 92 ft 2 kts 90°
2026-05-03 21:53 51.46849 -0.48231 95 ft 0 kts 90°